Location: Moscow
(55.7500°N, 37.5830°E)
Time: 22:35:31
(UTC+03:00)

COSMOS 2251 DEB - Pass Details

Date: 09 July 2022
Orbit: 738 x 847 km, 74.1° (Epoch: 17 August)

Event Time Altitude Azimuth Distance (km) Brightness Sun altitude
Rises 02:00:28 0° 332° (NNW) 3,242 ? -9.8°
Reaches altitude 10° 02:03:07 10° 342° (NNW) 2,298 ? -9.6°
Maximum altitude 02:07:45 32° 46° (NE) 1,276 ? -9.4°
Drops below altitude 10° 02:12:18 10° 109° (ESE) 2,253 ? -9.2°
Sets 02:14:52 0° 119° (ESE) 3,169 ? -9.0°
